829  
ASUS44 KLZK 130015  
RWRLZK  
 
WEATHER ROUNDUP FOR ARKANSAS  
NATIONAL WEATHER SERVICE LITTLE ROCK AR  
700 PM CDT WED AUG 12 2020  
 
NOTE: "FAIR" INDICATES FEW OR NO CLOUDS BELOW 12,000 FEET WITH NO  
SIGNIFICANT WEATHER AND/OR S TO VISIBILITY
.  
 
ARZ001-003-010-029-130100-  
NORTHWEST ARKANSAS  
 
CITY SKY/WX TMP DP RH WIND PRES REMARKS
 
FAYETTEVILLE MOSUNNY 83 72 69 SW7 29.95S HX 88  
6HR MIN TEMP: 82; 6HR MAX TEMP: 88;  
 
FORT SMITH SUNNY 85 73 67 E10 29.91S HX 91  
6HR MIN TEMP: 83; 6HR MAX TEMP: 86; 6HR PCP: TRACE;  
 
HARRISON MOSUNNY 81 70 69 SE6 29.98R  
6HR MIN TEMP: 80; 6HR MAX TEMP: 85;  
 
BENTONVILLE SUNNY 85 71 63 E6 29.97S HX 90  
6HR MIN TEMP: 83; 6HR MAX TEMP: 88;  
 
ROGERS SUNNY 85 70 60 E6 29.97R HX 89  
6HR MIN TEMP: 81; 6HR MAX TEMP: 87;  
 
SILOAM SPGS SUNNY 84 73 69 S8 29.96R HX 90  
6HR MIN TEMP: 84; 6HR MAX TEMP: 87;  
 
HIGHFILL SUNNY 87 66 49 SE6 29.96R HX 89  
6HR MIN TEMP: 85; 6HR MAX TEMP: 90;  
 
SPRINGDALE MOSUNNY 86 72 62 S5 29.96S HX 92  

 
 
ARZ004-005-016-130100-  
NORTH CENTRAL ARKANSAS  
 
CITY SKY/WX TMP DP RH WIND PRES REMARKS
 
BATESVILLE MOSUNNY 83 73 72 E9 29.96S HX 89  
6HR MIN TEMP: 74; 6HR MAX TEMP: 87; 6HR PCP: 0.01;  
 
FLIPPIN SUNNY 83 71 67 E5 29.95R HX 87  
6HR MIN TEMP: 81; 6HR MAX TEMP: 86;  
 
MTN HOME SUNNY 82 67 60 SE6 29.95F  
6HR MIN TEMP: 80; 6HR MAX TEMP: 85;  
 

 
 
ARZ040-041-130100-  
WEST CENTRAL ARKANSAS  
 
CITY SKY/WX TMP DP RH WIND PRES REMARKS
 
MENA SUNNY 86 73 66 CALM 29.96R HX 93  
MOUNT IDA CLOUDY 81 74 79 CALM 29.93S HX 86  
6HR MIN TEMP: 77; 6HR MAX TEMP: 85;  
 

 
 
ARZ009-017-025-026-028-130100-  
NORTHEAST ARKANSAS  
 
CITY SKY/WX TMP DP RH WIND PRES REMARKS
 
JONESBORO PTCLDY 83 74 74 E3 29.96R HX 89  
6HR MIN TEMP: 82; 6HR MAX TEMP: 85;  
 
NEWPORT SUNNY 80 75 84 NE5 29.96R HX 85  
6HR MIN TEMP: 73; 6HR MAX TEMP: 84;  
 
WALNUT RIDGE MOSUNNY 80 75 84 NE5 29.96S HX 85  
6HR MIN TEMP: 72; 6HR MAX TEMP: 81;  
 
BLYTHEVILLE MOCLDY 83 73 72 NE8 29.96R HX 89  
6HR MIN TEMP: 83; 6HR MAX TEMP: 90;  
 

 
 
ARZ022-023-033-042-044-130100-  
CENTRAL ARKANSAS  
 
CITY SKY/WX TMP DP RH WIND PRES REMARKS
 
LITTLE ROCK PTSUNNY 81 71 71 S7 29.95R HX 85  
N LITTLE ROCK N/A 81 71 70 S5 29.96S HX 85  
6HR MIN TEMP: 80; 6HR MAX TEMP: 84;  
 
BENTON CLOUDY 82 72 69 S7 29.95S HX 87  
JACKSONVILLE CLOUDY 83 72 68 S5 29.94S HX 88  
6HR MIN TEMP: 82; 6HR MAX TEMP: 86;  
 
CONWAY CLOUDY 82 73 74 S5 29.93S HX 88  
SEARCY CLOUDY 86 72 62 SE6 29.95R HX 92  
6HR MIN TEMP: 82; 6HR MAX TEMP: 89;  
 
HOT SPRINGS CLOUDY 82 72 71 SE6 29.95S HX 87  
6HR MIN TEMP: 78; 6HR MAX TEMP: 86;  
 
RUSSELLVILLE MOSUNNY 81 72 74 SE3 29.94R HX 85  
6HR MIN TEMP: 76; 6HR MAX TEMP: 84;  
 
CLINTON FAIR 82 73 74 CALM 29.95R HAZE HX 88  

 
 
ARZ036-130100-  
EAST ARKANSAS  
 
CITY SKY/WX TMP DP RH WIND PRES REMARKS
 
WEST MEMPHIS CLEAR 87 72 60 CALM 29.93F HX 93  
6HR MIN TEMP: 82; 6HR MAX TEMP: 89;  
 

 
 
ARZ050-053-066-070-073-130100-  
SOUTHWEST ARKANSAS  
 
CITY SKY/WX TMP DP RH WIND PRES REMARKS
 
TEXARKANA PTSUNNY 79 73 82 SE6 29.94R  
6HR MIN TEMP: 72; 6HR MAX TEMP: 81; 6HR PCP: 0.05;  
 
EL DORADO PTSUNNY 80 76 87 E3 29.96S HX 86  
6HR MIN TEMP: 75; 6HR MAX TEMP: 81; 6HR PCP: TRACE;  
 
DE QUEEN SUNNY 86 74 67 SE3 29.89F HX 94  
6HR MIN TEMP: 74; 6HR MAX TEMP: 88;  
 

 
 
ARZ056-057-069-130100-  
SOUTHEAST ARKANSAS  
 
CITY SKY/WX TMP DP RH WIND PRES REMARKS
 
PINE BLUFF SUNNY 82 72 71 E7 29.96S HX 87  
6HR MIN TEMP: 77; 6HR MAX TEMP: 84;  
 
STUTTGART PTSUNNY 83 73 72 SE7 29.96S HX 89  
6HR MIN TEMP: 81; 6HR MAX TEMP: 88;  
 
MONTICELLO MOSUNNY 85 74 69 E7 29.95S HX 92  
6HR MIN TEMP: 80; 6HR MAX TEMP: 88;  
 

 
 
 
 
CLICK HERE TO GO TO PREVIOUS BULLETINS.

The Nexlab AR Page Main Text Page